Estación de Rinconada

Ultimos registro cada 15 minutos 36
Estación Fecha / Hora Temperatura Humedad Lluvia Velocidad Dirección Radiación Presion
36 Rinconada 06-05-2026 08:45 8,9 94 0 0,4 157 185 1017,2
35 Rinconada 06-05-2026 08:30 7,3 95 0 0 230 146 1017,3
34 Rinconada 06-05-2026 08:15 5,8 94 0 0 170 98 1017
33 Rinconada 06-05-2026 08:00 4,9 92 0 0 170 30 1016,6
32 Rinconada 06-05-2026 07:45 4,9 91 0 0 166 11 1016,4
31 Rinconada 06-05-2026 07:30 5,3 91 0 0 165 7 1016,1
30 Rinconada 06-05-2026 07:15 5,3 92 0 0 165 0 1015,4
29 Rinconada 06-05-2026 07:00 5,4 91 0 0 165 0 1015,4
28 Rinconada 06-05-2026 06:45 5,3 90 0 0 165 0 1015,3
27 Rinconada 06-05-2026 06:30 5,8 92 0 0 165 0 1015,2
26 Rinconada 06-05-2026 06:15 5,7 92 0 0 165 0 1014,9
25 Rinconada 06-05-2026 06:00 5,3 91 0 0 170 0 1015
24 Rinconada 06-05-2026 05:45 5,3 90 0 0 149 0 1014,6
23 Rinconada 06-05-2026 05:30 5,7 90 0 0 149 0 1014,4
22 Rinconada 06-05-2026 05:15 5,8 89 0 0 149 0 1014,1
21 Rinconada 06-05-2026 05:00 6,1 90 0 0 149 0 1013,8
20 Rinconada 06-05-2026 04:45 6,2 89 0 0 149 0 1013,6
19 Rinconada 06-05-2026 04:30 6,6 89 0 0 149 0 1013,5
18 Rinconada 06-05-2026 04:15 7,1 90 0 0 148 0 1013,4
17 Rinconada 06-05-2026 04:00 7,3 89 0 0 148 0 1013,5
16 Rinconada 06-05-2026 03:45 7,6 88 0 0 146 0 1013,5
15 Rinconada 06-05-2026 03:30 7,9 88 0 0 148 0 1013,3
14 Rinconada 06-05-2026 03:15 8,3 88 0 0 148 0 1013,2
13 Rinconada 06-05-2026 03:00 8,7 87 0 0 148 0 1013,5
12 Rinconada 06-05-2026 02:45 8,8 88 0 0 148 0 1013,6
11 Rinconada 06-05-2026 02:30 8,8 88 0 0 148 0 1013,5
10 Rinconada 06-05-2026 02:15 9,1 88 0 0 148 0 1013,7
9 Rinconada 06-05-2026 02:00 9 89 0 0 148 0 1014
8 Rinconada 06-05-2026 01:45 9 86 0 0 148 0 1013,9
7 Rinconada 06-05-2026 01:30 9,2 86 0 0 148 0 1014,1
6 Rinconada 06-05-2026 01:15 9,5 86 0 0 148 0 1014
5 Rinconada 06-05-2026 01:00 9,8 85 0 0 148 0 1014
4 Rinconada 06-05-2026 00:45 10,1 83 0 0 148 0 1013,8
3 Rinconada 06-05-2026 00:30 10,3 84 0 0 148 0 1014
2 Rinconada 06-05-2026 00:15 10,7 83 0 0 147 0 1014
1 Rinconada 06-05-2026 00:00 11,1 81 0 0 147 0 1013,7